COSMO-SKYMED 1

Last updated on Fri Oct 04 2024 00:02:11 GMT+0000 (Coordinated Universal Time)

1 31598U 07023A 24277.55781586 .00003179 00000+0 40579-3 0 9992 2 31598 97.8888 99.1370 0001408 84.9105 275.2269 14.82147349937178
UTC large
Height (km)
Speed (km/s)
/
Latitude / Longitude
Inclination (degrees)
Orbital Period (minutes)
Azimuth
Elevation
Range (km)
Doppler Factor

Next 0 passes for location: London (51.5072 / 0.1276)

Sorry there are no passes over London.